This demonstration page uses our WeatherBlox Daily Observations layout. Learn more.

Left ArrowRight Arrow

Hourly Observations for June 14, 2016

Temp ( °F °C ) Dew Point ( °F °C ) Humidity (%) Winds ( mph kmh ) Pressure ( in mb ) Visibility ( mi km ) Precip ( " mm )
12:51 am 00:51 Cloudy 64 17.8 46 7.8 52 52 N 8 13 29.84 1011 10 16 0.00 0.00
1:51 am 01:51 Cloudy 63 17.2 46 7.8 54 54 NNW 8 13 29.85 1011 10 16 0.00 0.00
2:51 am 02:51 Clear 61 16.1 45 7.2 56 56 NW 10 17 29.84 1011 10 16 0.00 0.00
3:51 am 03:51 Clear 59 15 45 7.2 60 60 NNW 7 11 29.85 1011 10 16 0.00 0.00
4:51 am 04:51 Clear 58 14.4 45 7.2 62 62 NW 8 13 29.88 1012 10 16 0.00 0.00
5:51 am 05:51 Sunny 58 14.4 46 7.8 65 65 NW 10 17 29.91 1013 10 16 0.00 0.00
6:51 am 06:51 Sunny 59 15 46 7.8 62 62 NNW 10 17 29.92 1013 10 16 0.00 0.00
7:51 am 07:51 Sunny 62 16.7 44 6.7 52 52 NNW 9 15 29.93 1014 10 16 0.00 0.00
8:51 am 08:51 Sunny 64 17.8 42 5.6 45 45 NNW 9 15 29.94 1014 10 16 0.00 0.00
9:51 am 09:51 Sunny 67 19.4 40 4.4 37 37 NW 12 19 29.93 1014 10 16 0.00 0.00
10:51 am 10:51 Sunny 70 21.1 40 4.4 34 34 NNW 12 19 29.93 1014 10 16 0.00 0.00
11:51 am 11:51 Sunny 72 22.2 40 4.4 31 31 NNW 10 17 29.92 1013 10 16 0.00 0.00
12:51 pm 12:51 Sunny 74 23.3 40 4.4 29 29 VRB 5 7 29.91 1013 10 16 0.00 0.00
1:51 pm 13:51 Sunny 76 24.4 41 5 29 29 NNW 14 22 29.89 1012 10 16 0.00 0.00
2:51 pm 14:51 Sunny 78 25.6 41 5 27 27 NW 14 22 29.90 1013 10 16 0.00 0.00
3:51 pm 15:51 Sunny 79 26.1 40 4.4 25 25 NW 10 17 29.88 1012 10 16 0.00 0.00
4:51 pm 16:51 Sunny 80 26.7 41 5 25 25 NW 6 9 29.88 1012 10 16 0.00 0.00
5:51 pm 17:51 Sunny 79 26.1 42 5.6 27 27 NNW 7 11 29.88 1012 10 16 0.00 0.00
6:51 pm 18:51 Sunny 79 26.1 43 6.1 28 28 W 8 13 29.89 1012 10 16 0.00 0.00
7:51 pm 19:51 Sunny 77 25 43 6.1 30 30 W 9 15 29.90 1012 10 16 0.00 0.00
8:51 pm 20:51 Clear 74 23.3 43 6.1 33 33 WNW 6 9 29.91 1013 10 16 0.00 0.00
9:51 pm 21:51 Clear 72 22.2 44 6.7 37 37 WNW 7 11 29.93 1014 10 16 0.00 0.00
10:51 pm 22:51 Clear 69 20.6 45 7.2 42 42 WNW 6 9 29.94 1014 10 16 0.00 0.00
11:51 pm 23:51 Clear 67 19.4 46 7.8 47 47 WNW 5 7 29.96 1015 10 16 0.00 0.00

Powered by Vaisala Xweather